CAPE
1677 1668 1476 1906 1687 2100 1334 1568 1338 1480 1447 1518 1576 1729 1734 1774 1738 1750 1944 1733 1222 1204 1086 1255 957 1014 1067 1465 1290 1232 717 590 737 652 2064 2329 2066 2251 2214 2137 2031 2140 2260 2055 1871 1773 1726 1698 1665 1748 1774 1811 1753 1698 1721 1841 1856 1824 1778 1745 1727 1828 1816 1662 1532 1613 1561 1562 1500 1481 1415 1395 1396 1131 1464 1546 1310 1301 1223 1351 1330 1449 1269 1585 1478
1890 1878 1916 2337 1938 2011 1698 1983 1668 2332 1618 1657 1602 1692 1847 1806 1846 1796 1707 1545 1403 1196 1235 575 364 610 424 890 956 1058 1237 1458 1192 451 907 1995 1997 2254 2438 2338 2085 2074 2081 2174 2127 1816 1730 1724 1833 1692 1361 1749 1769 1724 1746 1770 1739 1646 1692 1708 1630 1600 1635 1458 1434 1577 1569 1584 1531 1477 1384 1524 1484 1472 1464 1602 1667 1780 1376 1520 1689 1574 1659 1532 1238
2040 2173 1925 1840 1882 1946 1658 1806 1533 1510 1711 1779 1618 2254 2362 2027 2140 1856 1845 1793 1612 1381 1424 821 690 452 300 434 524 1113 1617 1471 696 813 417 1284 2232 2168 2578 2390 2284 2075 2177 2159 2069 1993 2024 1930 2159 2062 2033 2116 1720 1626 1729 1676 1690 1720 1704 1601 1631 1586 1516 1437 1539 1551 1478 1428 1526 1498 1483 1591 1537 1586 1622 1304 1704 1733 1256 1453 1618 1439 1530 1541 1294
2741 2245 2043 1650 1364 1798 2002 2184 1587 2131 2022 1721 2074 2226 2600 1988 2411 2388 2055 1986 1099 1315 992 835 662 313 274 348 603 522 1393 1348 666 589 463 711 1471 2124 2255 2380 2402 2364 2371 2260 2098 2089 1888 2002 1943 1899 1863 1815 1884 1935 1758 1639 1499 1601 1494 1380 1517 1450 1369 1346 1547 1531 1641 1639 1610 1648 1609 1518 1538 1693 1760 1582 1723 1714 1282 1168 1464 1200 1372 1215 1359
3465 2425 2218 2282 2330 2323 2478 2149 2177 2349 1963 1984 2154 1895 2456 2842 2699 2517 2500 1310 1572 994 1089 695 527 306 423 438 476 799 1208 1339 975 917 894 601 774 1486 2046 2426 2506 2528 2422 2223 2196 1975 2011 2084 2100 2026 1759 1694 1736 1733 1945 1977 1917 1776 1739 1775 1701 1768 1572 1590 1584 1643 1758 1644 1698 1602 1690 1543 1340 1569 1575 1427 1537 1379 1340 1404 1398 1291 1406 1243 1373
3078 3279 2112 1537 2132 2203 2354 2278 2160 2155 1978 2544 2502 2503 2161 2542 2271 2333 1949 1916 1403 1718 1389 861 651 557 546 394 529 612 953 1087 1196 746 711 742 577 752 1367 2418 2454 2649 2556 2282 2224 2104 2112 2233 2078 2096 1967 1847 1973 1865 1938 2042 1984 1787 1621 1830 1756 1821 1617 1663 1763 1713 1788 1597 1715 1883 1784 1383 1326 1492 1583 1407 1371 1483 1457 1334 1317 1228 1302 1276 1244
3961 3222 2144 2556 1930 1932 1574 2206 2240 2412 2771 2606 2062 2546 2108 2076 2295 2531 2234 2120 1504 1386 1904 952 592 162 406 543 524 774 512 1056 1251 914 1134 1130 620 511 593 2009 2397 2352 2620 2612 2250 2167 2286 2233 2289 2040 2039 2174 2067 2119 2209 2094 1937 1991 1912 1900 1862 1662 1798 1617 1845 1738 1784 1613 1628 1618 1483 1352 1352 1533 1315 1496 1422 1407 1294 1282 1175 1215 1175 1174 1038
3892 3768 2305 2622 1979 1595 1961 2773 2411 2531 2549 2010 2381 2166 1662 1558 2059 2164 2913 1622 1931 1730 1692 1544 544 501 188 373 421 407 794 1067 660 782 741 961 1271 783 737 1046 2013 2257 2575 2714 2598 2698 2296 2353 2378 2281 2188 2310 2194 2286 2117 2166 1897 1955 2005 1902 1836 1855 1800 1961 1864 1786 1817 1822 1719 1668 1451 1587 1487 1580 1475 1457 1356 1302 1202 1078 1104 1081 1141 764 425
4713 3659 3160 2654 1902 1612 2345 2614 3072 2719 2579 2505 2234 1696 1636 1944 2490 2380 2512 2932 2054 1138 1630 1452 612 479 280 311 144 260 686 1190 897 722 248 429 467 347 532 554 1123 906 1939 2346 2690 2602 2391 2542 2420 2445 2390 2424 2319 2207 2279 2138 2060 2126 2229 2177 1971 2056 1804 1969 2026 1893 1831 1893 1763 1731 1653 1652 1542 1471 1446 1434 1368 1244 995 960 919 1014 670 213 236
4493 4368 3104 3296 2754 2263 2296 2956 3201 2710 2469 2515 2909 2348 2420 3276 3343 2826 2514 2496 2164 1625 948 805 514 369 348 156 323 270 502 818 506 620 304 152 217 287 507 496 654 600 795 1316 2339 2627 2574 2503 2610 2568 2532 2508 2405 2354 2295 2354 2310 2182 2072 2031 1733 1909 1870 1757 1960 1996 1785 1776 1805 1735 1672 1602 1529 1397 1358 1329 1177 1059 898 791 874 862 332 168 283
4457 4360 3995 2666 2232 2495 2688 2534 2474 2812 2422 2874 2326 2365 2476 2585 3424 2726 2654 2697 2499 2386 2041 1523 642 635 346 329 120 496 480 668 561 724 737 628 409 362 301 359 57 260 584 328 988 1999 2438 2641 2692 2648 2604 2437 2613 2570 2456 2556 2410 2322 2255 2163 2072 1939 1841 1948 1905 1871 1890 1861 1795 1734 1640 1494 1328 1318 1229 1109 1069 827 743 716 766 558 129 219 383
4387 4485 3044 2394 2261 2504 3109 2159 2841 3318 3000 2048 2659 2766 3486 3000 2748 3544 3475 2692 2322 2329 2396 2040 816 791 528 196 311 534 826 766 686 765 574 310 392 611 406 262 486 511 318 499 506 935 1214 1988 1984 1509 2148 2673 2703 2644 2685 2610 2511 2411 2306 2201 2141 1996 2096 2152 1975 1845 1736 1870 1701 1652 1502 1430 1264 1195 1099 857 788 727 604 634 694 248 67 193 181
3947 4143 3438 3328 3334 3158 3398 3439 2760 2636 3053 2657 2513 2673 2737 2829 2998 2602 2624 2872 2638 2184 1926 1544 1278 888 644 541 511 602 437 790 1009 681 568 618 290 420 281 483 382 318 325 380 646 820 773 1420 1226 1297 1425 2935 2617 2707 2592 2557 2509 2475 2352 2227 2096 1925 1964 1936 1945 1862 1763 1860 1577 1379 1494 1350 1346 938 799 820 727 555 554 544 572 169 114 89 108
2869 3819 3842 3998 3155 3380 3695 3510 3266 2890 3148 3216 3283 3201 2827 2079 1970 1831 2868 2821 2656 2298 1866 1778 1413 576 574 438 374 362 611 495 468 576 353 483 398 334 185 368 495 602 444 393 317 342 444 473 837 1273 1029 1554 1689 3020 2739 2542 2591 2444 2372 2216 2065 1885 1922 1727 1901 1842 1753 1678 1152 1804 1422 1475 1215 769 728 694 626 590 495 545 392 158 79 171 131
2665 2803 2966 3545 3564 3555 3211 4510 2607 3208 2753 2998 3557 3283 3475 2264 2434 2227 2914 2341 2628 1790 1878 2201 807 546 509 437 388 397 316 427 408 422 237 314 300 328 300 389 464 435 635 812 490 644 838 716 737 1041 1573 1083 1366 1546 2089 1867 2535 2619 2484 2292 2115 1976 1850 1857 1687 1695 1672 1429 1368 1886 1486 1328 1115 995 892 738 639 525 624 528 294 63 194 94 222
2468 2490 2509 2519 2767 3666 2999 3188 2719 4032 4462 4500 3124 3701 2785 3104 2111 2330 2499 2329 1833 1820 2195 1830 1991 517 595 423 304 283 428 565 418 298 270 207 267 233 31 291 393 810 923 1091 621 997 597 1084 1199 1556 1440 1644 1346 1103 1031 2268 2925 2656 2573 2351 1933 1817 1906 1835 1836 1769 1641 1575 1435 1736 1722 1268 1133 1001 903 664 595 423 436 434 318 267 104 89 120
2083 2112 2313 2444 2911 3187 3144 3470 4026 3519 3345 3571 4056 2122 2170 2692 2512 2429 2278 2132 2027 1502 1748 1376 1910 1070 734 463 87 126 277 284 201 242 225 191 242 248 160 169 528 463 802 597 851 532 873 1004 1542 1713 1616 1747 1386 1307 1495 2384 2999 2875 2945 2554 2305 2307 2202 2105 1742 1848 1740 1524 1315 1884 1737 1488 1010 920 735 787 730 618 323 297 80 44 112 193 206
2164 2190 2206 2621 2570 2794 2871 2880 3048 3534 3033 2929 2912 3056 1987 2227 2050 2132 2598 2580 3039 1536 1244 1728 1852 1212 1326 929 896 764 146 145 56 378 406 150 126 9 205 275 505 621 735 734 771 814 543 785 1623 1579 1924 1900 1889 1796 1805 1440 1535 1574 2354 3252 2477 2468 2376 2109 2018 1741 1812 1591 1414 1375 1748 1759 1472 729 676 820 594 550 479 176 205 142 216 180 333
2117 2240 2430 2570 2618 2794 2886 2619 2581 2774 2609 2668 2435 2034 2321 1775 2217 2281 1853 3682 2082 2979 1486 1831 1795 1622 930 338 425 404 270 334 570 455 263 350 270 238 265 380 399 446 530 375 596 618 977 846 957 1258 1868 1452 1586 1811 1388 1581 1503 1548 3404 3256 2567 2500 2443 2274 1951 1874 1663 1764 1632 1528 1578 1727 1395 818 753 749 712 492 432 290 138 19 26 155 290
1795 1983 2476 2512 2706 2929 3089 2772 2321 2231 2364 2106 2070 2058 2291 2875 2503 4057 3579 3149 4122 2524 2735 1754 2773 2710 928 723 557 408 751 380 341 450 593 538 475 261 187 227 183 313 357 469 310 827 966 966 951 798 984 1673 1494 1612 1609 1702 2148 1894 1714 2430 2868 2711 2364 2226 2144 1984 1835 1651 1835 1733 1670 1642 1457 976 698 792 709 718 378 308 269 118 92 198 251
2090 1754 2276 2459 2596 2726 3083 2940 2513 2457 2140 1777 1554 1499 2188 3250 3195 3500 2876 3720 2740 3474 2499 3090 2403 1859 1313 1307 955 718 439 309 542 311 654 487 519 484 297 324 113 424 415 215 351 579 562 1097 970 935 1168 1444 1674 1807 1495 1525 1745 2134 2368 2045 2628 2544 2152 1922 2004 2013 1864 1729 1840 1938 1865 1805 1667 1232 748 642 668 639 600 517 352 273 216 170 356
2366 1996 2427 2535 2441 2647 2732 2740 2659 2134 1838 1580 1405 1404 1796 2533 4207 3469 3521 3548 3868 3362 3211 3129 2034 2133 1914 2332 1908 1389 790 574 393 358 395 710 663 491 426 356 495 457 364 400 518 348 371 651 1205 866 880 1096 1513 1825 1731 1524 1777 1745 1965 2227 2777 2455 2214 2064 1976 1914 1765 1764 1686 1793 1969 1930 1822 1306 897 538 634 736 567 525 549 467 378 327 392
1526 1896 1983 2250 2489 2690 2207 2253 2480 2181 2207 1980 1894 1500 1441 1811 2250 2877 3951 3453 3578 3810 2925 3150 3048 3066 2805 2619 2652 2024 1279 1205 794 910 754 641 470 544 635 422 427 456 561 342 323 370 301 165 427 594 1244 1163 1327 1585 1883 1952 1434 2028 2994 2293 2447 2484 2320 2249 2178 2056 1836 1921 1672 1728 1744 1867 1936 1660 1183 892 668 700 732 590 549 686 631 523 493
1366 1314 1713 1752 1996 2469 2452 2078 2328 2373 2327 2404 2094 1536 1187 1249 1611 2198 3016 4074 4149 4336 3182 3101 2765 3016 2921 2517 2252 2177 1092 971 754 727 729 778 945 788 562 346 530 670 387 977 540 467 387 543 566 541 755 988 1216 1536 1502 1811 1730 2254 3015 2427 2318 2285 2441 2493 2310 2277 2002 1925 1800 1688 1791 1842 1768 1794 1641 1202 961 833 710 646 628 680 768 762 639
1228 1076 1237 1683 1746 2344 2474 2214 2294 2536 2558 2517 2368 2333 1881 1694 1694 1938 2395 3676 4377 4124 3620 3358 2740 2727 2527 2240 2202 1758 1354 1031 1080 875 889 965 1144 999 824 735 666 403 452 501 523 365 540 475 442 666 560 907 1103 1578 1512 1468 1660 2472 2244 2957 1814 1869 2040 1976 2251 2019 1898 1789 1755 1802 1725 1837 1890 1708 1592 1585 1466 1383 1240 1084 867 788 832 858 904
1262 1538 894 1097 1541 2111 2724 2705 2549 2783 2906 2903 2732 2709 2618 2329 1918 2193 2281 2493 2848 3867 4479 3714 3400 3347 2903 2667 2438 1677 1196 673 710 412 594 637 720 840 1094 971 644 628 737 891 1124 682 716 454 370 616 636 850 947 1415 1960 1453 1645 2659 1939 2207 1999 1457 1404 1678 1804 1886 1642 1666 1507 1554 1680 1720 1826 1868 1717 1528 1609 1579 1496 1348 1123 918 874 724 779
1418 1638 1684 983 1333 1798 2505 2780 2615 2847 3074 3088 2777 2825 2991 2874 2778 2521 2433 1923 2335 2432 2981 3245 3294 3176 3417 3273 2836 2720 1695 1102 1072 1027 994 1126 1015 927 1227 1519 1236 946 859 1057 1246 1158 352 631 494 490 649 1399 1160 1593 1796 1984 1491 2873 2222 3330 2057 1448 1324 991 1423 1392 1418 1376 1410 1290 1305 1520 1452 1416 1482 1630 1642 1664 1622 1510 1433 1164 961 812 893
1502 1572 1793 1740 1523 1585 2075 2729 2726 2635 2968 3114 2810 2302 2769 2891 3067 2891 2879 1974 2064 2505 2516 2708 3173 3352 3331 3282 3500 2544 2376 1984 1495 1229 925 1036 1278 1684 1902 1566 1409 1586 1426 1033 808 1192 1068 765 673 933 1417 1589 1809 1588 1748 1796 1782 2614 2730 2370 2318 2563 1348 1059 944 1070 1044 989 1055 1128 1054 1104 1111 1093 1303 1512 1581 1661 1583 1415 1414 1336 1196 1096 1017
782 1544 1788 2222 2086 1763 1798 1817 2395 2711 2763 3073 2932 2643 2609 2786 2742 3198 3057 2093 1979 2301 2368 2221 3030 2672 2932 3002 3355 3026 3070 2446 2150 1808 1919 2430 2223 1972 1827 1848 2192 1906 1487 1872 1446 1335 1459 679 612 1074 1205 1754 2952 1680 2070 1817 1312 2984 2187 1927 1710 2294 2419 1651 1354 1124 903 795 721 723 846 886 877 878 925 1110 1511 1593 1653 1039 904 1030 1109 1064 980
295 657 1474 2004 2512 2341 2027 1890 1863 2436 2410 2341 2740 2788 2785 2782 2560 2861 2818 2663 2231 2365 2589 2346 2231 2554 2678 2765 2709 2701 2758 2589 2528 1970 2321 3044 2754 2149 1894 1836 1967 1870 2098 1938 1958 1631 1178 851 397 2019 2948 1687 2643 2076 1400 1782 1602 2316 1534 1591 1771 2121 1981 1816 1630 1445 1276 1127 963 729 528 548 589 595 632 710 836 1062 1002 894 710 613 717 811 844
848 902 1332 1690 2326 2739 2658 2401 2200 2178 2252 2238 2428 2753 2921 2914 2474 2586 2731 3004 3030 2823 2919 2677 2337 2142 2533 2508 2673 2942 2829 2676 2778 2468 2214 2855 2922 2724 2577 2334 2197 2177 2106 2341 2267 2398 1116 1193 887 922 2793 2599 1826 1634 1885 2206 2158 2023 1962 1903 2033 1656 1457 2329 1700 1654 1565 1434 1268 1100 925 698 443 366 360 383 442 522 616 645 591 530 510 475 559
1217 1194 1013 1578 2196 2638 2908 2267 1646 1867 2316 2399 2395 2650 2889 2838 2377 1957 1902 2768 3184 3284 2825 1978 1899 1963 2351 2603 2653 2787 2642 2712 2790 2703 2769 2840 2922 3126 2989 2681 2558 2368 2470 2374 2291 2253 1906 1053 1035 1034 870 1564 2825 2453 2362 2179 2649 2175 2397 2103 2338 1485 3240 1957 1922 1816 1619 1452 1340 1237 1094 943 771 600 408 210 280 336 414 504 521 531 431 300 284
1385 1525 1614 1524 1999 2396 2090 2265 1427 1638 2349 2438 2256 2364 2865 2997 2881 2539 2144 2192 3081 3253 3411 2972 1918 1828 2210 2557 2848 3023 2959 2813 2744 2641 2445 2665 3182 3259 3179 3217 3037 3078 2959 2958 2719 2798 2898 2468 2185 2102 1784 1731 1476 1647 1825 2029 2431 2927 2722 2735 2866 2741 2658 2459 2512 2101 1998 1842 1659 1427 1165 956 836 704 554 410 216 254 297 353 381 345 285 184 168
1312 1529 2196 2080 1940 2116 2243 2163 2107 1482 2221 2527 2161 1976 2552 3024 3038 2625 2513 2636 2704 3388 3179 3217 3077 2306 2108 2663 2912 2905 2968 2996 2777 2662 2422 2226 2499 3110 3260 3211 3285 3262 3302 3404 3433 3285 3048 2904 2576 2664 2639 2481 2478 2686 2739 2656 2544 2666 2388 2570 2168 2906 3487 3353 3017 2814 2225 1973 1784 1614 1492 1364 1246 1109 975 839 693 567 460 187 126 78 72 304 322
1566 1625 2139 2525 2559 2292 2313 2319 2516 2152 2460 2296 2520 2335 2526 2701 2998 2684 2144 2507 2803 3232 3382 3344 3123 2983 2558 2567 2695 2804 2438 2479 2784 2791 2460 2276 2198 2066 2478 2953 3266 3150 3218 3515 3501 3321 3064 3114 2704 2271 2274 2541 2698 2712 2725 2776 3321 3230 3322 3074 2681 2470 2542 2685 2468 2323 2314 2276 2081 1878 1686 1458 1291 1153 1090 1000 896 776 672 571 2 0 1 0 0
1714 2067 2072 2510 2876 2918 2471 2415 2624 2929 2735 2687 2899 2597 2398 2558 2922 3185 2765 2405 2688 2951 2870 2842 2809 2699 2578 2897 2651 2203 2200 2341 2634 2911 2682 2521 2396 2473 2420 2694 2967 3269 3346 3210 3545 3840 3542 3259 3198 2539 2249 2129 2235 2211 2275 2337 2376 2887 3293 3486 3008 2896 2646 2588 2667 2430 2115 1798 1779 1765 1724 1776 1684 1549 1377 1171 1116 1040 915 794 637 481 472 115 486
1352 2066 2421 2592 3010 3206 2858 2652 2781 3199 3165 3166 3269 2846 2456 2385 2659 3002 3310 2937 2687 2845 2955 2933 2710 2475 2469 2491 2418 2517 2468 2397 2644 2880 2841 2845 2808 2570 2564 2673 2802 2759 2863 3016 3127 3301 3751 3740 3604 3627 3644 3610 3592 3569 3557 3456 3455 3492 3570 3939 3472 3758 3984 3365 3063 2628 2383 2114 1999 1936 1915 1845 1778 1750 1729 1712 1681 1542 1418 1314 1115 965 892 849 825
1630 1481 2453 2575 2706 3241 3304 2980 2998 3197 3394 3607 3536 3093 2417 2234 2408 2747 3014 3139 2933 2990 3188 3214 3006 2971 2587 2360 2296 2276 2327 2401 2593 2714 3087 3125 3120 3185 3093 2886 2897 3145 3451 3673 3914 3918 3843 4077 4308 4241 4345 4038 4220 4290 4183 3880 3659 3542 3607 3817 3920 4034 4263 3952 3317 2887 2821 2819 2975 2770 2686 2456 2096 1850 1674 1555 1433 1390 1382 1468 1518 1443 1383 1327 1260
1897 1491 1927 2687 2716 2999 3505 3440 3083 3330 3550 3492 3725 3704 2847 2308 2339 2684 2529 2717 2998 3203 3305 3091 2472 2265 2333 2378 2544 2621 2619 2542 2523 2697 2938 3214 3264 3092 3349 3767 3528 3310 3254 3551 3996 4257 4366 4318 4039 3730 3802 3813 4010 4137 4080 3984 3913 3657 3578 3587 3769 3819 4042 3973 3810 3610 3008 2852 2775 2720 2619 2562 2296 2071 1896 1746 1664 1666 1587 1533 1498 1453 1366 1379 1474
1989 1601 1393 2367 2698 2734 3369 3561 3394 3408 3642 3591 3635 3904 3630 2479 2063 2421 2624 2554 2495 2770 2901 2879 2251 1730 1638 1860 1908 2220 2560 2883 2844 3032 3058 2791 3276 3525 3400 3563 3738 3888 3902 3802 3984 4158 4185 4027 3944 3754 3687 3879 3946 3731 3822 3924 3884 4094 3879 4091 4265 4322 4252 4206 4124 3865 3585 3408 3175 2817 2356 2239 2286 2529 2208 2040 1897 1782 1714 1648 1589 1525 1468 1457 1397
1980 1703 1471 1554 2561 2753 2962 3431 3446 3365 3514 3640 3612 3800 3975 3283 2257 1896 2393 2750 2553 2400 2537 2226 2255 2144 1522 1255 1433 1519 2283 3422 3159 3552 3147 3262 3130 3438 3811 3735 3779 3982 4204 4171 4238 4291 4168 4005 3960 3865 3628 3730 3864 3815 3383 3308 3403 3717 4117 3965 4393 4205 3810 3780 4054 3347 3127 2890 2784 2552 2492 2506 2453 2604 2802 2994 3127 2431 2123 1902 1720 1648 1603 1590 1533
2196 2063 1892 1547 1767 2614 2733 3164 3458 3331 3144 3522 3662 3402 3552 3522 2902 1789 1796 2429 2733 2406 2435 2481 2060 1943 2013 1741 1065 1762 2344 3707 4106 3574 3596 3739 3753 3527 3799 3762 4281 4436 4378 4312 4263 4088 4050 3967 3846 3516 3394 3413 3020 3219 2802 2677 4150 4178 3781 3910 3603 3812 3596 3779 3529 2961 2583 2280 2328 2674 2690 2554 2371 2620 2751 2792 2686 2883 2753 2580 2256 2086 1991 1864 1697
2745 2971 2205 1637 1498 1857 2529 2893 3235 3278 3134 3044 3340 3313 3335 3323 3335 2929 2039 2268 2808 2945 2423 2613 2588 2039 1736 1781 1840 1792 3485 3797 4818 3545 3528 3567 3558 3364 3130 2766 2937 4767 4499 4225 4158 4158 3985 3831 3704 3608 3362 3274 2966 2872 2822 2937 3657 3024 2730 2537 2583 2853 3210 2914 2437 2562 2575 2060 2430 2628 2868 2939 2824 2868 2967 2889 2750 2789 2722 2615 2116 1894 1819 1729 1698
3322 2694 2405 2218 2222 1626 1849 2649 3015 3116 3037 2667 2882 3146 3246 3291 3421 3677 2660 2070 2256 2825 2987 2510 2636 2728 2399 1675 1423 1554 1818 2415 2772 4475 3455 3278 3330 3190 2998 2672 2266 1830 1707 3016 3730 3851 3929 3847 3948 3750 3353 3202 3094 3105 3314 3444 2720 2359 2361 2308 2311 2384 2384 1979 1978 2185 2662 2415 2524 2525 2525 2674 2646 2732 2803 2801 2778 2848 2559 2493 2184 2019 1869 1700 1549
2841 3469 3500 2700 2524 2250 1948 2560 2626 2843 3020 2439 2587 2894 3028 3114 3093 3316 2700 2505 1904 2017 2717 3029 2726 2811 3104 2794 2209 1472 1414 2915 3741 3389 4677 4360 3374 3035 2865 2724 2533 2330 2144 1943 1724 2530 3443 3722 3881 3985 3694 3570 3358 3657 2886 2788 2656 2644 2651 2578 2611 2302 1989 1948 2184 2371 2619 2648 2370 2200 2291 2468 2590 2562 2650 2768 2719 2821 2555 2356 2317 2309 2128 1949 1788
3487 3654 3280 3193 3082 3360 2945 2668 3427 2681 3128 2627 2547 2629 2827 2896 2877 2953 3107 2325 2404 2140 2413 2606 3090 3174 3300 3308 3103 2943 2669 2708 3255 3561 4042 4651 5241 4348 3812 3386 3097 2870 2692 2525 2301 2123 1977 2260 2896 3376 3681 3800 3985 4106 3275 3237 3072 2991 2848 2797 2828 2516 2494 2514 2277 2242 2398 2339 2284 2122 2220 2477 2596 2550 2530 2623 2516 2488 2635 2411 1603 1541 1596 1615 1570
3663 3950 3638 3342 3396 3573 3258 2913 2900 2818 2768 2948 2671 2671 2653 2665 2653 2503 2935 2550 2465 2598 2643 2838 3215 3383 3722 3835 3858 3754 3788 3711 3597 3838 4268 4519 4539 4897 5122 4406 4077 4141 4327 3826 3466 3231 2954 2715 2894 3206 3659 3686 3885 4128 3973 3324 3135 3080 3482 4005 3084 2779 2642 2462 2365 2239 2186 2293 2483 2258 2278 2433 2536 2488 2297 1978 1696 1669 1658 1695 1272 951 1024 880 1062
3609 3840 4137 3602 3652 3754 3734 3468 3020 3030 2936 2873 2747 2755 2726 2619 2466 2326 2858 2870 2744 2786 2922 3112 3318 3805 3892 3963 4392 4435 4301 4569 4597 4067 4242 4564 4799 5141 4971 4884 4836 4747 4544 4262 4303 3925 3447 3239 3030 3312 3490 3675 2955 4374 4329 3557 3154 3298 3279 3001 2942 2896 2850 2576 2267 2086 2287 2436 2592 2790 2553 2523 2439 2097 2089 1766 1582 1604 1580 1354 1018 958 797 676 637
3633 3831 4135 3917 3857 3869 3885 3946 3620 3135 3030 2594 2609 2685 2718 2691 2567 2439 2856 2829 2988 3182 3209 3316 3494 3604 3770 4038 4292 4101 4389 4879 4754 4211 3942 3826 4246 4320 4482 4329 3982 3778 3882 3913 4002 3708 3500 3254 3095 3055 3092 3215 2896 2925 2977 3021 3045 3099 3160 3123 3076 3003 2777 2379 2187 2071 2136 1768 1843 1748 1805 1955 1942 1616 1544 1582 1555 1195 1108 1072 1161 817 701 628 706
3645 3770 3870 3994 3856 3803 3845 3958 3695 3847 3352 4348 2617 2563 2557 2587 2544 2824 3083 3078 3136 3344 3575 3618 3626 3782 3951 4295 4730 4657 4641 4756 4499 4436 4243 3922 4308 4124 4134 4002 4110 3981 4000 3635 3283 3271 3320 3210 3024 2996 2865 2812 2842 3097 3144 2999 2832 2991 3108 3109 3025 2673 2493 2218 2098 1924 1744 1616 1742 1845 1964 1752 1549 1463 1406 1349 1397 1412 1062 1022 1117 1140 877 881 760
3574 3700 3684 3931 3908 3849 3683 3888 3991 3760 3530 4300 2921 2664 2547 2502 2472 3120 3297 3256 3291 3412 3473 3757 3864 3876 4080 4309 4605 4670 4566 4760 4424 4347 4164 4112 4430 4413 4418 4302 4128 4081 3861 3712 3319 3107 3353 3259 3026 2956 2884 2336 2298 2492 2772 2753 2599 2726 2849 2912 2502 2252 2182 2017 2035 1871 1669 1747 1549 1694 1751 1688 1398 1320 1167 1038 1132 1279 1309 1292 1006 1133 995 1011 937
Wind_Speed
7 7 6 10 5 10 14 17 9 8 10 8 8 9 10 10 10 11 10 10 10 9 9 10 10 8 8 9 9 8 7 7 7 6 7 8 9 10 12 12 12 10 11 10 11 11 11 11 12 11 12 11 12 11 11 11 12 12 13 15 15 15 16 16 16 16 16 16 16 15 15 14 14 13 13 13 11 13 12 12 12 10 11 11 11
8 6 9 9 7 9 10 10 8 11 8 8 7 8 8 8 8 7 8 8 9 8 10 9 9 8 8 9 11 9 9 8 9 8 6 7 7 9 12 11 10 9 9 10 10 11 11 11 11 11 11 11 11 12 12 12 13 14 14 15 16 15 16 16 17 17 17 17 16 16 15 14 14 13 13 13 13 13 13 13 12 12 12 11 11
9 9 8 9 8 7 11 9 7 6 6 6 5 7 10 8 8 7 7 8 10 8 10 9 9 9 8 10 11 12 11 10 11 11 8 8 9 9 10 11 9 9 9 9 10 10 10 10 11 11 11 11 12 13 13 14 13 15 15 15 16 16 16 17 17 17 17 17 16 15 13 14 14 13 11 13 12 13 13 14 13 13 12 12 11
9 10 11 10 12 10 8 11 7 8 8 3 3 6 8 9 10 12 10 9 9 9 9 10 10 8 11 10 10 12 13 13 11 10 9 10 11 11 10 10 11 10 9 9 9 9 10 12 11 11 11 13 13 13 13 14 15 15 16 15 16 16 17 17 18 18 18 18 17 15 15 15 14 13 13 14 12 13 13 14 12 12 11 11 11
11 10 7 10 11 12 10 9 7 4 3 1 2 3 7 7 9 11 13 10 9 9 11 11 8 10 11 10 10 12 13 13 12 13 11 12 13 12 11 13 13 13 12 11 10 10 11 12 12 12 13 14 15 16 14 15 15 15 14 15 15 15 16 17 17 17 18 17 17 16 15 15 14 14 13 13 13 13 13 12 12 11 11 11 12
8 8 9 8 8 8 9 5 6 4 1 4 2 4 6 9 9 10 10 13 11 10 9 10 9 10 10 9 10 11 14 13 13 11 13 12 12 13 13 13 14 15 14 14 14 13 14 14 15 14 14 15 16 16 15 15 15 15 15 17 17 17 17 17 17 17 18 17 17 15 15 15 13 12 12 12 12 11 11 10 10 11 12 13 15
6 8 10 9 6 7 8 8 3 4 3 2 2 4 6 10 10 9 10 11 10 10 10 9 8 8 11 11 10 10 12 12 13 11 11 11 13 12 12 12 15 14 14 14 15 15 16 16 16 15 15 16 16 14 14 14 14 14 15 15 16 14 16 17 17 17 17 17 16 15 14 13 12 11 11 10 10 10 10 10 10 12 14 15 18
5 4 6 7 7 3 4 4 4 3 3 2 2 3 6 10 11 10 12 9 8 8 8 8 8 8 9 11 10 10 12 12 12 12 9 12 11 12 12 12 12 14 14 14 15 15 18 17 17 16 16 16 15 14 13 13 13 14 14 14 14 15 15 15 15 15 15 15 16 15 13 11 10 10 10 10 9 10 10 10 11 13 15 17 18
5 6 3 3 3 4 1 1 3 3 2 2 2 4 8 11 10 10 12 10 9 6 7 5 7 8 9 8 8 11 11 12 11 9 9 10 12 9 10 10 10 12 13 13 14 12 16 17 17 16 16 15 14 14 13 13 13 13 13 13 14 15 15 15 16 14 14 15 15 13 12 10 10 10 9 9 9 10 11 12 13 15 19 19 18
5 6 6 5 7 4 3 2 3 3 0 3 5 6 6 8 9 9 9 11 11 10 6 7 6 7 9 7 10 10 10 11 9 10 9 9 8 8 8 9 10 10 11 8 11 11 11 15 16 16 16 15 14 14 14 14 14 14 14 13 14 13 14 15 15 15 14 13 13 13 12 10 9 8 7 8 9 11 12 13 15 19 20 19 18
5 6 7 6 4 3 6 5 4 4 3 4 3 7 7 7 8 8 8 10 9 11 10 7 8 7 6 6 7 10 9 10 11 10 10 9 8 10 6 7 nan 7 7 11 7 8 9 8 10 12 12 15 15 15 15 15 14 14 13 12 12 12 12 13 13 13 13 13 12 13 11 9 8 7 8 8 10 12 12 15 19 21 21 19 20
6 6 5 7 8 9 4 7 8 7 6 5 4 8 6 3 7 10 8 7 8 10 8 8 8 8 8 7 6 7 7 9 9 10 10 9 10 11 7 8 6 5 7 7 7 5 6 7 9 9 8 14 16 15 15 15 14 13 13 12 11 11 11 12 12 12 12 12 12 10 9 8 7 7 9 10 12 13 15 19 21 21 nan 20 22
7 7 7 7 10 10 8 9 8 5 8 5 3 6 8 5 7 6 12 9 7 8 10 9 9 7 6 8 3 6 7 8 9 9 9 9 7 9 6 7 6 6 7 5 7 4 5 7 8 7 7 10 14 17 16 15 15 14 13 13 13 12 13 13 13 12 11 12 11 12 11 11 9 9 10 11 13 15 18 20 21 21 22 nan 25
8 8 9 9 9 10 8 9 10 8 9 4 6 5 4 4 6 10 12 10 10 12 10 8 7 6 4 4 2 4 3 7 10 9 7 8 8 7 7 8 7 7 6 7 8 7 7 7 8 6 6 10 11 12 13 14 15 17 16 15 14 14 14 14 13 13 12 12 11 9 11 12 11 11 12 13 16 18 20 21 20 22 nan 26 28
8 9 9 9 8 9 7 7 10 8 10 9 6 6 5 8 7 9 8 8 10 10 9 12 8 6 7 4 1 4 4 8 8 6 7 8 8 8 7 9 5 5 8 9 7 8 6 6 6 8 8 9 10 10 13 14 12 20 18 18 17 17 16 15 16 15 15 13 12 14 13 13 12 13 14 16 17 19 21 21 22 nan 25 nan 28
8 8 9 8 8 9 8 6 9 8 9 9 5 7 7 7 1 9 7 7 7 8 10 10 10 5 3 3 2 4 4 7 9 8 9 8 7 7 nan 8 7 5 8 9 7 7 7 9 8 9 11 10 10 9 10 8 16 21 22 22 21 20 18 17 17 16 15 14 14 15 15 15 15 15 17 18 20 21 22 23 24 25 27 nan 30
7 8 8 7 7 8 8 7 7 7 8 8 5 5 9 4 5 7 5 5 6 5 7 8 8 7 6 4 nan 3 3 7 8 5 9 9 9 8 6 7 6 6 7 6 4 8 10 8 9 10 9 10 11 10 10 12 16 17 21 24 24 23 21 19 17 16 16 16 15 16 17 17 17 18 19 21 23 23 24 25 nan nan 30 31 32
6 7 7 6 6 7 8 8 6 7 7 9 8 7 6 6 2 8 5 3 4 4 1 7 5 3 6 5 5 5 4 8 nan 4 5 6 9 nan 6 9 6 8 7 8 10 9 9 8 10 10 10 11 11 12 12 12 12 14 16 19 23 21 21 20 19 18 18 18 17 18 19 19 19 20 22 23 24 24 25 26 27 30 32 34 35
5 6 6 7 5 6 7 8 7 6 6 7 7 8 4 7 3 4 4 3 4 5 2 2 3 2 2 4 2 5 3 2 1 2 6 3 5 4 6 6 7 8 10 9 9 10 8 8 10 10 10 10 10 12 12 14 14 12 10 17 20 20 20 21 21 20 20 20 20 20 20 21 22 22 24 25 25 25 26 28 30 nan nan 34 35
6 5 6 6 5 5 5 7 7 7 5 6 7 8 7 5 4 4 3 2 3 4 3 3 2 1 1 3 1 1 4 1 3 1 2 1 3 5 5 7 6 6 5 8 8 8 8 8 9 9 9 11 11 12 13 13 15 16 16 19 20 20 20 21 22 22 21 21 21 21 21 22 23 23 24 25 26 27 29 30 32 33 nan 35 35
7 7 6 6 4 5 4 6 6 7 6 5 6 5 4 4 3 3 3 1 2 2 2 2 1 3 3 1 2 1 5 5 5 4 2 1 2 4 2 3 4 3 2 4 7 6 10 10 9 10 10 11 11 12 13 13 14 14 16 21 20 21 20 21 22 23 22 22 22 22 22 22 23 24 26 27 28 28 30 32 33 34 35 35 35
5 8 6 6 5 3 4 5 6 7 5 7 5 5 3 4 3 4 3 2 1 2 2 1 0 3 4 3 2 2 3 4 5 7 6 4 4 2 4 5 4 2 5 8 1 5 5 7 11 12 10 10 11 12 12 12 11 13 14 21 20 20 20 21 22 23 23 23 23 23 23 24 25 26 27 29 30 31 32 33 34 35 35 35 35
5 5 7 6 5 4 5 4 5 5 6 6 5 5 3 3 4 3 3 3 1 2 1 1 0 1 2 5 4 5 6 4 3 0 2 5 4 4 3 3 5 1 3 3 5 6 5 5 8 10 8 9 10 10 11 11 13 8 15 20 20 20 21 22 23 25 25 24 24 24 25 26 26 27 29 30 32 33 34 35 36 36 36 36 35
7 5 5 6 5 5 6 6 4 5 4 4 5 4 4 2 2 1 2 3 2 1 2 1 3 4 3 5 6 4 4 4 5 6 4 3 2 3 2 3 4 4 2 7 8 8 5 7 9 9 8 9 9 9 9 10 10 15 15 19 20 21 22 23 26 26 26 26 25 26 27 28 29 30 31 33 34 35 36 37 38 38 37 37 36
6 6 5 5 5 5 5 5 3 3 4 3 3 4 4 4 1 2 2 3 3 3 3 4 3 3 4 5 4 4 4 4 4 5 6 5 5 5 6 3 3 5 4 2 3 3 4 7 7 9 9 9 9 9 10 11 11 17 18 19 23 23 24 26 27 28 28 27 28 28 28 29 30 31 32 33 34 35 36 37 38 38 38 37 37
5 5 5 4 5 4 4 4 3 2 2 3 2 2 3 3 3 2 3 3 4 5 4 4 3 4 3 2 4 4 3 5 6 4 5 7 7 6 4 3 5 4 1 4 4 6 7 6 7 6 7 8 9 9 11 12 12 22 22 18 23 26 27 27 28 27 27 28 30 31 31 32 32 33 33 33 33 35 35 35 35 36 36 36 37
6 4 4 5 3 4 3 3 2 1 0 1 2 2 3 4 4 4 5 5 5 6 6 7 6 5 5 4 3 3 2 2 3 4 3 2 1 1 1 3 4 4 3 3 5 5 6 3 5 7 7 7 8 9 11 12 10 19 22 17 16 26 27 28 28 28 29 30 32 33 33 33 33 34 34 34 33 34 34 34 35 35 35 37 38
5 5 3 4 4 3 2 2 2 1 1 2 3 4 5 6 5 6 7 7 7 8 8 8 9 9 8 6 5 5 4 4 3 3 3 2 2 2 1 1 2 3 3 3 3 5 6 5 5 5 7 8 10 11 11 12 11 21 20 16 15 19 28 29 29 30 31 32 33 33 33 33 33 33 33 34 34 34 34 35 36 37 39 40 41
7 5 5 3 4 3 3 2 2 2 2 3 5 6 6 6 6 7 7 8 7 8 9 9 8 9 9 9 7 6 5 4 3 2 2 3 2 2 0 1 1 3 3 3 3 4 2 5 3 7 8 10 11 11 12 13 14 18 16 16 17 16 25 31 31 31 32 32 31 31 30 31 32 32 33 33 33 34 35 37 38 39 40 41 42
7 7 5 4 4 3 4 4 2 2 3 4 5 6 7 6 6 6 6 6 7 7 8 9 9 9 9 8 8 8 8 8 8 6 3 4 2 2 2 2 2 4 3 4 4 4 4 5 8 7 7 11 11 12 12 13 15 18 14 14 16 19 23 31 31 31 31 30 29 29 29 29 30 31 32 33 34 35 37 38 40 41 42 41 42
8 9 8 5 5 4 4 3 3 3 2 5 4 4 5 6 5 5 6 6 6 7 7 8 8 9 9 10 9 9 9 9 7 7 6 4 2 1 0 0 2 3 4 4 6 4 4 3 4 1 9 12 12 12 13 13 16 19 16 16 18 20 20 22 28 30 30 29 28 28 29 30 32 33 34 34 35 37 38 40 42 43 44 43 43
9 8 8 6 5 4 3 3 3 2 2 3 3 3 3 4 4 4 5 8 7 7 8 9 9 10 11 11 11 10 10 10 10 9 7 5 3 2 1 1 2 4 4 5 7 6 4 4 4 6 10 11 14 12 10 9 12 22 17 19 20 18 18 18 24 28 28 29 31 33 33 33 35 37 37 37 37 37 38 39 41 42 42 42 43
10 9 8 7 7 5 4 4 3 3 3 2 2 1 1 2 2 3 3 7 9 8 8 8 8 9 10 11 11 11 11 11 10 11 10 8 6 2 2 2 2 4 5 6 7 7 5 5 5 6 7 6 6 6 8 11 12 15 22 21 21 20 19 18 17 24 30 32 37 40 39 37 38 39 38 38 38 37 38 38 39 40 40 40 40
11 10 9 9 8 6 5 5 5 4 4 3 1 1 2 2 4 4 5 5 8 9 8 9 9 8 9 10 10 11 11 11 11 11 10 9 8 6 4 3 2 3 4 6 7 7 6 3 5 6 7 7 8 8 10 11 12 12 14 15 18 19 18 17 18 19 28 32 36 40 39 37 36 37 38 39 39 39 40 40 40 nan nan 40 40
12 12 12 10 10 8 7 7 7 5 5 4 3 3 3 4 4 4 6 9 9 9 10 9 9 9 9 10 11 10 10 11 12 10 10 9 7 5 4 4 4 3 3 5 7 9 8 4 3 5 6 7 8 6 8 10 11 13 15 16 16 13 15 19 20 21 23 26 30 33 33 33 34 36 39 41 42 43 44 44 nan nan nan nan nan
13 13 13 12 11 10 8 8 8 7 7 6 6 4 4 4 4 5 6 8 10 10 10 10 10 9 9 10 10 10 11 10 10 10 9 8 7 5 4 2 2 3 3 5 7 9 8 6 4 4 4 5 5 6 8 10 11 12 13 15 15 15 18 24 27 27 26 25 25 28 30 34 38 41 43 44 45 45 45 45 44 43 41 41 40
12 15 15 14 13 12 10 10 9 8 8 8 7 6 5 4 5 6 8 9 9 10 10 10 9 9 10 10 10 10 9 9 9 10 9 9 7 5 4 3 2 3 3 5 6 7 8 7 3 4 4 4 5 7 8 8 9 9 12 16 16 15 20 28 31 30 26 23 23 28 34 38 41 43 45 46 48 48 48 47 46 44 43 42 42
13 14 16 15 15 13 12 11 11 10 10 9 8 7 6 6 6 7 9 10 10 10 11 11 11 11 10 9 9 9 9 10 8 8 8 8 6 5 3 2 2 1 3 4 5 5 7 7 3 2 4 4 5 7 8 8 9 10 12 14 13 14 21 29 30 26 21 21 23 25 32 37 42 46 47 47 48 49 49 49 47 46 45 45 45
14 14 16 16 16 15 14 13 11 11 10 9 9 8 7 7 8 8 8 11 11 11 11 11 12 12 12 11 10 9 9 9 8 7 7 7 5 3 2 1 1 1 1 2 2 4 5 5 4 2 4 6 7 7 8 9 10 12 14 13 13 18 27 30 25 20 19 22 27 32 33 34 35 37 44 48 50 51 51 50 49 48 47 47 46
14 14 15 17 17 17 16 14 13 12 11 10 10 10 9 8 9 9 9 10 11 11 11 11 11 12 12 12 11 10 9 9 8 6 5 5 6 4 2 2 2 1 1 1 1 2 3 4 3 2 4 5 6 7 8 11 11 13 16 16 15 19 27 28 22 18 21 26 30 30 32 34 38 43 45 46 48 50 50 48 47 46 47 47 47
17 16 16 17 18 18 17 16 14 12 12 11 12 12 11 10 10 10 10 11 11 11 11 11 11 11 10 10 10 8 9 11 12 7 4 5 6 6 5 3 3 3 3 3 2 0 1 2 1 2 5 7 7 5 6 9 12 12 15 19 22 25 25 21 22 23 23 25 28 29 31 32 32 34 35 36 41 46 47 49 44 46 46 46 46
19 19 19 18 18 18 18 17 15 14 13 13 14 14 14 13 12 11 11 11 11 11 11 10 10 12 12 10 8 8 7 10 14 12 8 5 6 6 8 6 5 5 4 3 3 2 0 1 0 2 5 7 8 6 4 7 9 14 18 25 26 27 24 19 20 23 25 24 26 28 32 33 33 33 35 36 36 40 38 38 39 40 42 46 45
21 21 19 18 17 19 19 19 17 15 14 14 17 18 17 13 13 13 12 13 13 12 12 12 12 11 11 10 8 7 9 12 13 13 10 9 7 5 3 6 9 10 7 5 4 3 1 1 2 4 6 7 8 6 5 6 15 19 25 28 27 25 24 14 10 19 26 26 25 25 27 31 30 30 33 34 33 33 34 35 33 33 36 38 40
23 21 20 19 19 19 21 20 18 16 15 16 22 21 19 16 13 13 13 12 13 13 13 13 14 13 11 9 8 7 7 7 7 11 10 10 8 6 4 2 2 4 4 6 7 6 4 3 3 4 6 9 9 7 5 9 15 15 19 25 28 27 19 13 15 20 24 24 21 20 22 25 27 27 28 30 30 31 31 32 33 33 33 34 36
25 23 22 21 21 20 20 21 19 18 16 21 23 23 21 18 14 11 12 12 12 13 14 14 14 14 12 10 8 7 6 9 9 6 9 11 9 7 5 2 1 2 2 0 3 5 7 5 4 6 8 10 9 11 9 9 9 9 12 18 28 29 22 16 18 18 21 23 20 20 20 19 21 25 27 28 29 29 27 27 30 33 34 34 34
25 23 21 22 23 22 21 21 22 20 17 27 25 25 22 19 16 13 11 11 12 12 13 14 14 13 12 10 10 8 7 7 7 7 7 7 11 10 9 8 7 4 3 3 4 7 8 8 7 8 10 12 11 15 13 10 6 7 10 15 14 15 11 11 13 17 19 22 20 19 20 20 21 24 26 27 27 27 27 25 25 27 30 32 35
26 25 24 24 24 23 22 21 21 20 19 30 27 26 23 20 17 15 11 10 11 11 12 13 14 13 12 11 10 8 7 6 7 8 9 8 8 9 11 9 7 8 8 10 12 13 15 14 14 13 13 14 14 13 18 16 15 14 17 15 8 6 8 11 14 18 20 25 26 22 21 22 22 22 23 24 23 23 23 23 22 21 24 28 32
26 27 27 25 25 24 24 22 19 20 23 31 26 27 25 20 20 16 12 11 11 10 11 12 13 13 12 11 10 9 7 6 6 10 9 9 8 8 8 9 10 9 9 10 17 20 20 22 21 21 22 19 21 18 22 22 22 19 14 11 10 10 11 13 14 17 21 23 25 24 24 25 26 22 19 19 21 22 22 22 22 24 23 21 25
27 27 27 26 26 25 24 23 19 20 19 27 27 26 24 23 23 16 13 12 12 11 11 12 13 13 12 11 9 9 8 7 7 11 10 10 7 7 9 11 12 12 11 12 18 25 26 26 30 29 27 29 36 24 25 27 28 25 17 12 13 16 15 16 16 18 21 23 25 25 26 27 28 26 21 19 20 21 22 23 23 20 19 20 22
26 26 27 27 26 25 24 21 20 20 19 26 26 26 25 25 21 16 15 14 13 13 12 12 13 12 11 11 10 9 9 8 9 13 13 13 7 7 8 9 10 11 12 13 15 20 28 29 30 32 32 47 38 21 16 23 25 21 19 17 17 17 18 19 19 19 22 25 27 29 29 31 29 30 27 22 20 23 23 23 24 24 22 23 20
25 27 27 26 25 24 22 20 21 18 17 24 26 27 26 25 21 17 17 16 15 15 14 14 14 12 11 11 11 10 9 9 12 15 15 13 8 8 9 10 11 12 15 16 15 15 19 25 26 28 35 50 41 25 16 20 27 23 21 19 17 18 19 20 21 22 25 30 31 28 29 30 29 28 29 25 22 21 23 25 26 27 25 25 24
Wind_Direction
93 115 97 81 105 95 74 85 92 82 62 76 75 67 57 56 53 53 61 67 69 71 76 82 78 77 78 69 68 72 80 82 73 45 42 54 46 30 15 17 36 44 50 56 60 58 60 62 61 58 60 63 62 60 61 61 63 64 63 64 65 65 65 66 66 65 64 64 65 66 66 68 71 71 70 73 73 78 76 68 56 47 46 38 34
130 122 109 124 93 81 109 110 131 123 118 95 98 82 76 71 73 71 66 72 83 98 92 85 82 78 86 88 87 85 81 81 96 84 63 59 56 43 19 20 27 45 55 65 68 67 64 64 68 72 63 62 63 64 61 64 64 64 65 65 66 67 68 64 65 65 63 62 61 62 63 65 67 68 68 63 61 57 51 54 47 37 35 30 25
130 127 126 129 137 133 119 133 109 103 95 92 112 127 114 96 94 90 91 87 88 91 96 87 88 85 82 83 90 89 91 85 72 77 61 55 57 50 41 27 30 35 50 61 67 79 79 73 67 70 77 77 71 66 64 64 67 67 68 69 66 66 62 62 60 62 61 60 60 61 61 66 66 67 68 71 60 59 51 49 39 33 26 21 16
141 136 154 145 145 144 157 131 155 140 123 145 147 117 123 126 127 121 114 104 97 92 91 93 87 79 78 87 87 92 89 89 92 99 95 78 62 58 54 54 42 45 52 53 58 67 74 76 70 72 75 76 76 79 79 74 69 71 71 69 68 64 61 61 61 61 60 56 53 55 54 57 61 62 60 61 55 53 47 46 35 31 20 12 4
143 155 163 149 154 151 151 159 149 121 115 223 306 104 101 97 113 114 108 111 104 98 90 88 84 99 102 97 100 98 96 92 90 83 81 69 69 69 65 63 63 57 58 65 62 64 73 72 72 67 70 72 76 75 77 75 75 75 76 73 70 66 65 63 61 58 58 55 51 50 54 56 53 57 57 58 51 45 46 40 30 19 9 4 353
145 158 158 153 161 141 158 149 123 126 161 206 137 96 93 104 109 115 127 124 107 102 100 99 89 87 96 98 101 101 96 95 93 91 86 94 89 77 68 68 72 73 73 64 64 64 66 70 69 66 69 71 70 73 76 78 76 73 69 68 65 63 61 60 60 57 56 55 51 46 50 52 54 55 57 55 50 45 41 30 17 8 0 354 348
162 181 163 156 174 165 146 132 172 181 191 310 111 103 98 111 113 106 107 102 101 109 100 88 94 101 107 109 108 102 99 97 99 94 92 89 86 93 83 66 72 76 76 75 70 68 65 67 68 68 69 71 72 74 73 75 74 69 66 67 64 60 62 59 55 54 55 54 52 50 55 59 56 50 54 50 46 42 35 22 10 3 357 348 344
173 195 189 153 173 133 76 115 225 172 111 298 25 96 112 97 92 101 102 113 116 97 89 89 88 80 92 92 94 87 93 97 88 89 91 81 82 77 79 80 69 77 72 81 75 66 62 63 66 64 65 67 69 69 71 67 66 64 64 62 60 57 52 59 59 59 57 54 53 50 53 58 53 52 53 52 41 30 25 17 7 357 346 343 343
180 206 207 172 127 121 105 339 256 37 109 197 119 93 70 80 88 98 113 119 109 108 103 103 90 95 89 101 109 105 89 89 89 92 89 84 73 66 76 86 91 78 72 75 81 76 64 64 62 61 61 64 63 63 60 62 59 60 60 59 53 54 51 50 53 57 57 51 53 53 53 52 55 57 57 41 23 15 16 10 3 346 340 342 345
182 181 218 157 172 147 175 144 342 81 201 116 97 79 75 88 85 93 112 119 142 124 130 113 100 97 123 115 101 77 74 79 86 78 78 90 95 92 88 75 68 83 91 75 64 74 71 59 58 59 56 55 54 55 56 53 54 54 51 50 50 50 49 50 48 48 50 48 49 52 55 56 56 54 41 25 15 10 5 0 352 340 341 342 347
175 174 173 206 136 122 139 138 163 135 114 86 79 81 70 65 88 94 99 120 130 144 154 152 115 117 115 131 94 89 66 67 65 73 75 69 75 64 50 85 nan 71 88 76 66 59 65 67 60 60 53 44 45 43 45 47 47 46 47 47 49 49 50 49 47 46 45 46 46 49 54 56 50 35 21 13 5 0 357 347 338 339 341 345 347
157 156 213 141 125 117 151 132 139 147 145 98 99 63 62 69 87 88 98 111 139 146 133 143 134 139 153 117 95 80 81 67 64 61 62 55 61 80 58 54 74 78 53 70 91 52 60 52 58 56 39 30 38 39 40 42 42 42 44 48 49 48 45 47 47 45 44 44 47 47 45 45 40 34 14 9 4 355 349 341 339 342 nan 347 347
146 141 135 118 135 146 149 137 124 126 110 148 116 83 87 90 97 117 115 122 140 144 150 150 147 149 123 116 108 78 50 74 68 54 54 56 57 66 77 61 51 61 89 98 82 80 50 56 62 60 39 25 35 35 38 39 39 43 46 44 42 41 42 42 43 42 34 35 42 38 32 30 25 19 13 7 359 351 347 346 345 347 348 nan 348
138 133 130 135 132 140 144 133 128 133 124 128 100 98 71 163 130 120 106 126 141 144 156 145 139 130 124 103 86 68 63 44 42 39 49 58 44 49 68 67 36 42 47 47 52 49 52 58 76 72 70 52 41 27 38 38 38 37 36 38 37 37 37 38 39 38 34 34 39 12 20 15 20 11 10 4 356 348 349 350 353 353 nan 350 350
130 126 126 125 132 120 130 127 115 137 125 114 110 107 108 47 51 69 95 120 131 141 145 135 144 157 159 136 52 31 27 62 56 40 43 50 45 35 39 41 16 32 53 49 52 59 57 63 61 60 57 63 62 41 36 35 18 18 26 27 29 31 33 39 40 38 38 37 37 16 18 23 26 19 9 3 357 355 355 355 355 nan 353 nan 353
123 120 127 125 123 125 122 125 117 124 126 120 102 103 99 82 155 103 98 119 132 148 152 149 142 159 134 123 26 27 29 40 37 37 37 50 48 37 nan 40 10 18 49 54 39 54 46 44 41 48 48 49 58 49 54 19 4 13 19 20 22 26 34 36 41 46 40 41 43 23 20 25 24 20 13 8 7 4 2 0 357 355 355 nan 357
127 117 118 119 123 124 128 129 123 118 116 115 118 70 78 123 56 79 85 131 152 152 145 127 141 153 149 134 nan 22 54 17 14 57 37 33 23 28 339 65 15 22 56 70 63 58 57 32 35 39 44 45 48 52 46 15 16 22 23 22 22 28 32 38 42 44 45 43 41 23 25 24 24 21 18 15 11 10 5 2 nan nan 359 0 1
132 119 113 122 119 123 127 128 121 124 119 116 121 133 137 88 188 103 135 89 129 110 66 96 93 149 141 137 159 158 131 136 nan 26 96 59 13 nan 6 45 17 11 41 46 39 46 54 44 23 40 35 42 46 41 35 29 25 32 35 23 20 25 29 33 40 44 46 47 42 34 29 28 25 24 21 18 14 10 6 3 2 2 3 4 4
131 125 121 122 128 129 128 125 128 125 119 119 116 112 127 122 130 137 95 180 153 149 169 190 222 116 81 98 51 115 171 119 165 31 26 44 149 49 8 30 35 17 29 51 34 47 45 52 36 30 23 48 38 40 37 33 21 24 358 1 14 21 27 30 35 40 43 44 42 38 31 26 23 23 20 15 12 9 7 6 6 nan nan 7 8
141 137 129 126 136 136 134 127 127 126 129 116 116 119 151 161 139 151 157 158 169 137 175 202 237 161 188 117 37 219 178 134 347 5 346 24 344 69 39 18 30 34 54 49 49 36 22 36 52 47 43 29 42 43 45 36 31 27 22 8 17 21 26 30 33 36 38 38 37 34 29 24 20 18 17 14 12 11 9 9 9 9 nan 10 12
140 139 133 131 139 141 135 129 130 129 130 114 104 108 118 125 113 95 95 77 44 170 181 212 115 293 307 342 168 327 343 357 323 355 346 343 10 344 41 184 96 50 67 112 74 29 18 26 42 59 39 35 38 42 43 39 37 35 29 9 17 21 24 28 31 33 33 34 32 30 27 22 19 17 16 15 14 13 12 11 11 11 11 13 15
142 133 144 131 134 141 130 115 119 120 125 119 118 123 119 105 96 96 87 91 307 344 8 344 211 188 290 304 309 332 332 346 357 358 347 330 16 10 26 35 25 71 64 48 12 78 65 2 18 37 43 44 36 34 42 47 43 40 22 2 12 16 19 23 27 30 30 30 28 28 26 24 21 18 17 17 16 14 14 13 12 12 14 15 15
147 144 132 134 132 132 119 107 113 121 126 129 125 113 86 78 83 85 91 73 5 23 11 359 344 281 303 307 328 342 337 350 14 20 351 349 43 66 63 170 169 10 52 113 66 65 35 65 71 61 33 44 40 40 38 44 42 29 345 0 6 12 15 19 23 26 26 25 26 25 25 25 22 20 19 17 17 15 14 13 13 13 13 13 12
153 153 140 122 136 132 119 117 125 123 116 123 122 112 111 75 71 71 68 53 66 37 44 334 2 333 3 329 340 351 340 9 18 360 12 39 57 70 102 94 82 80 1 21 31 32 39 36 46 66 55 50 48 46 50 42 34 343 2 1 7 11 14 18 20 22 23 21 21 22 24 23 22 20 18 17 16 15 14 13 12 11 10 10 9
147 141 145 123 145 135 128 132 141 132 131 124 127 137 137 136 159 48 36 32 35 19 18 11 7 4 346 338 322 8 6 28 40 30 353 349 15 52 86 107 53 49 54 152 115 97 52 39 41 48 50 51 48 43 50 42 42 357 13 3 7 10 16 18 20 20 19 19 19 20 20 20 19 17 15 13 12 12 13 12 11 9 8 7 6
136 137 142 146 147 144 144 141 149 151 134 127 122 126 119 117 106 79 54 40 48 35 35 45 28 18 29 32 351 2 22 3 358 15 9 2 18 36 41 85 105 109 41 46 31 74 50 43 56 44 63 50 50 40 34 45 39 357 10 15 5 11 15 19 21 19 19 18 20 20 18 18 17 16 14 12 11 11 11 11 10 9 7 5 5
141 156 157 157 162 162 164 146 154 176 182 101 97 87 93 100 106 94 90 67 54 53 42 43 40 41 40 20 43 13 346 344 2 352 7 13 16 47 36 83 101 119 78 26 36 49 112 47 43 28 32 43 56 49 35 35 31 349 4 17 9 9 16 18 20 19 17 19 20 19 18 16 15 14 13 11 10 10 10 9 8 6 3 2 3
166 175 185 165 179 173 185 157 164 169 94 84 89 94 87 91 90 84 76 76 66 54 59 56 49 49 45 40 27 35 7 9 4 334 338 336 242 224 287 56 91 93 123 117 109 69 29 62 31 9 12 30 33 34 35 32 34 345 3 9 15 8 13 18 19 18 17 18 19 18 17 16 14 13 10 9 9 8 7 6 4 3 1 359 360
175 195 190 206 187 178 173 173 166 152 100 92 93 98 95 85 77 75 73 73 62 56 55 51 55 48 46 38 34 36 31 20 28 21 295 246 271 306 54 86 72 97 93 94 89 116 109 98 42 8 18 17 16 36 14 20 8 350 6 13 14 17 10 16 18 18 18 18 19 19 17 16 14 12 11 8 4 4 4 5 3 2 360 357 357
177 192 211 211 204 187 179 170 162 114 104 97 93 94 91 88 74 66 62 56 54 45 41 46 42 42 44 37 29 30 25 24 19 34 332 319 352 10 11 26 34 74 99 96 99 104 95 72 72 349 29 9 18 20 22 18 0 355 11 13 20 20 20 12 16 17 18 20 21 20 17 15 13 11 8 6 4 4 5 5 4 5 6 5 3
196 196 213 213 214 205 184 172 166 138 111 107 100 94 82 86 68 52 31 31 37 33 24 22 28 27 29 30 23 26 21 28 37 28 3 348 5 22 351 46 50 66 76 78 93 73 71 104 111 67 3 11 23 21 16 13 360 4 15 18 19 27 32 14 16 19 18 18 17 16 14 14 13 11 9 7 6 6 6 7 7 9 11 11 11
201 216 210 212 215 212 204 164 152 134 118 106 93 83 84 77 62 48 7 358 13 17 19 8 9 8 9 14 15 15 16 19 22 29 22 16 15 3 353 21 50 69 68 72 74 81 78 78 80 72 64 27 11 19 28 24 7 356 17 20 23 25 20 26 20 17 15 12 14 17 18 17 16 15 16 16 16 15 14 13 12 13 14 14 14
207 219 221 213 209 208 187 188 156 178 173 150 144 148 34 26 27 24 20 340 350 358 358 7 7 360 358 1 4 4 8 12 12 21 25 16 13 33 27 354 33 35 50 63 75 78 59 38 42 58 64 69 53 29 28 26 24 15 11 18 21 21 18 13 12 8 12 19 23 23 22 19 17 18 20 21 21 21 19 18 17 16 16 16 16
207 216 224 218 216 215 199 195 198 188 209 208 178 217 276 317 348 334 344 347 338 345 349 352 353 351 347 352 356 357 355 2 7 14 23 26 13 15 8 12 17 34 30 65 75 88 84 23 31 45 56 44 41 21 25 31 34 24 29 25 19 12 6 3 0 1 7 19 24 20 18 19 18 18 19 20 20 20 18 18 17 nan nan 14 14
219 215 224 222 226 225 214 212 218 215 227 241 230 238 261 302 324 334 331 337 341 343 346 349 350 344 346 346 351 348 345 351 356 7 21 26 29 28 22 356 15 41 44 47 79 90 89 66 15 42 41 35 29 24 26 27 21 22 25 29 24 5 1 10 13 13 17 14 17 16 17 19 17 16 17 19 19 17 16 15 nan nan nan nan nan
229 227 224 231 233 233 230 228 233 230 241 246 255 263 273 291 304 318 325 325 332 338 343 347 348 343 343 342 346 344 343 344 345 352 360 16 16 18 44 56 40 53 70 80 69 87 93 86 8 10 41 45 24 22 27 22 28 24 29 29 17 3 11 20 20 22 27 34 24 18 17 16 15 15 16 17 17 15 14 14 13 11 9 7 6
228 237 234 234 237 241 238 241 242 244 246 253 262 273 279 284 299 310 315 318 325 330 335 339 343 338 339 344 343 339 335 336 339 345 353 5 5 8 27 37 54 56 69 82 91 84 86 83 44 337 354 26 6 6 22 28 22 26 32 26 11 1 10 20 16 20 35 38 33 25 17 15 14 15 16 15 15 13 12 12 11 9 7 6 5
228 236 245 240 240 245 243 243 246 249 248 253 262 268 279 288 290 301 305 312 321 327 333 337 340 337 338 341 341 337 331 332 339 341 343 359 355 2 27 51 56 57 58 76 85 83 85 90 89 338 336 16 6 359 14 19 15 14 19 13 351 350 8 11 12 21 30 28 20 14 7 7 12 16 17 14 13 13 12 11 9 7 6 5 5
236 237 247 248 244 247 249 247 251 255 256 257 257 265 265 266 280 290 300 306 314 320 331 342 345 342 342 341 343 341 334 330 341 347 342 345 339 351 344 18 90 116 96 86 73 71 69 79 86 19 348 358 6 9 2 0 360 4 9 353 342 353 5 6 10 17 29 27 25 19 14 17 19 13 8 8 10 13 12 10 8 6 4 4 4
241 243 246 253 250 250 253 253 253 255 260 260 261 266 269 268 273 286 294 300 312 320 329 340 345 344 341 341 346 343 336 328 333 345 344 329 314 317 295 257 229 228 171 172 105 78 73 71 56 7 328 323 333 355 358 358 358 357 349 335 334 358 9 5 359 14 24 24 22 13 7 9 10 11 12 11 11 12 11 8 8 5 4 2 3
242 243 245 251 255 255 258 259 260 260 263 260 257 265 271 275 274 287 298 305 309 312 323 338 340 339 335 335 339 344 324 320 331 328 345 279 290 292 279 246 226 227 233 225 215 212 107 97 112 297 315 311 311 334 6 352 358 351 325 320 337 1 13 13 344 356 11 22 21 13 3 2 8 7 2 358 357 1 4 6 4 6 3 1 2
248 244 244 246 254 259 260 264 264 261 259 254 258 279 276 269 278 279 289 298 304 308 314 324 335 335 334 333 334 340 321 308 311 323 331 299 260 257 251 251 234 228 236 236 242 254 183 126 215 287 299 295 295 315 344 15 326 324 321 320 336 354 10 12 342 352 360 14 22 16 5 359 5 7 360 360 1 358 357 353 349 351 354 357 360
253 252 251 256 254 259 263 263 268 263 261 255 273 276 282 284 277 282 287 294 303 309 316 317 324 331 330 329 323 320 304 289 293 311 323 321 317 304 252 212 208 216 221 237 257 266 271 273 304 311 301 293 295 305 15 8 332 338 329 329 340 355 3 4 18 354 355 3 13 20 8 352 358 8 360 357 1 358 355 353 354 353 354 353 353
255 259 264 262 258 258 261 266 266 264 262 266 277 279 282 288 279 277 290 294 301 309 311 318 321 326 328 325 322 305 301 301 293 294 303 315 319 309 293 249 174 159 200 230 237 246 262 266 292 297 287 289 290 311 351 348 358 344 343 340 346 357 0 10 12 5 348 354 13 25 25 355 358 8 4 359 359 355 355 355 355 354 354 354 354
258 258 260 265 265 264 262 267 267 266 262 271 278 282 283 288 295 280 282 295 305 309 309 315 319 321 319 312 305 295 281 301 294 287 284 297 309 319 303 306 165 170 175 315 298 275 253 272 288 283 285 283 293 296 332 352 339 356 4 354 340 336 348 6 13 11 356 349 5 27 30 7 358 9 6 359 357 352 352 355 353 353 356 358 358
260 260 263 264 264 266 265 262 262 263 260 269 282 283 284 289 295 288 284 295 304 306 307 311 313 321 320 309 302 295 286 280 273 277 278 283 285 283 264 244 229 224 263 315 321 332 323 310 312 302 300 303 309 316 354 346 335 16 16 20 358 331 344 3 15 16 2 345 356 10 16 7 1 7 5 358 355 351 349 352 351 348 353 356 357
266 263 262 263 263 267 271 268 265 265 258 274 284 285 283 289 293 288 294 292 289 295 298 303 308 315 317 312 307 302 291 285 274 275 278 284 280 269 269 257 246 237 259 289 302 306 308 309 318 324 314 310 312 338 338 335 345 357 4 10 337 11 22 24 15 5 359 344 344 351 6 357 355 7 6 356 352 349 346 346 348 346 352 353 353
267 265 263 263 266 268 270 272 271 269 261 276 283 285 285 287 289 274 289 296 297 293 291 298 303 305 312 310 303 303 298 287 282 291 284 276 274 267 245 235 232 242 254 277 306 312 313 313 320 324 319 318 305 327 326 333 334 340 357 356 1 10 18 10 6 352 350 343 342 350 358 354 346 357 9 0 351 347 342 344 350 351 340 330 341
271 271 269 269 266 269 272 272 272 267 263 272 282 284 283 285 274 272 286 289 292 296 289 291 297 305 312 313 307 297 298 291 286 295 300 286 275 249 235 228 232 238 247 259 299 319 320 327 329 328 323 308 279 303 332 334 328 333 337 342 358 346 357 359 355 346 342 340 341 347 350 350 341 341 355 2 355 347 345 340 333 330 333 346 344
273 274 271 268 268 269 273 274 274 267 261 271 286 286 287 286 284 279 282 285 288 288 285 287 289 296 309 320 310 302 293 280 284 299 303 298 284 259 243 240 246 254 259 266 270 295 327 331 329 321 312 280 279 280 322 336 336 327 330 343 343 339 349 344 345 342 342 342 347 342 343 344 340 338 342 351 358 348 338 335 333 334 339 339 337
270 269 269 268 268 267 270 272 271 274 264 269 288 288 292 294 288 276 281 283 286 287 285 284 289 291 294 299 313 303 289 277 276 287 298 298 285 263 258 253 254 257 262 264 277 283 296 303 306 308 303 291 293 309 346 358 332 336 338 345 342 342 341 339 339 339 339 333 331 335 346 339 333 332 332 338 348 350 341 336 334 331 330 333 337